Regional Weather Roundup
Issued by NWS Newport/Morehead, NC

Current Version | Previous Version | Text Only | Print | Product List | Glossary On
Versions: 1 2 3 4 5 6 7 8 9 10 11 12 13 14 15 16 17 18 19 20 21 22 23 24 25 26 27 28 29 30 31 32 33 34 35 36 37 38 39 40 41 42 43 44 45 46 47 48 49 50
000
ASUS42 KMHX 262225
RWRMHX
WEATHER ROUNDUP FOR EASTERN NORTH CAROLINA
NATIONAL WEATHER SERVICE NEWPORT/MOREHEAD CITY NC
600 PM EDT THU MAY 26 2016

NOTE: "FAIR" INDICATES FEW OR NO CLOUDS BELOW 12,000 FEET
WITH NO SIGNIFICANT WEATHER AND/OR OBSTRUCTIONS TO VISIBILITY

NCZ015>017-031-032-045>047-102-103-262300-
NORTH COAST

CITY           SKY/WX    TMP DP  RH WIND       PRES   REMARKS
EDENTON        SUNNY     84  67  56 S13       30.09F
ELIZABETH CITY SUNNY     85  63  47 SE10      30.09F
KITTY HAWK     CLEAR     82  66  58 S6G18     30.11F
MANTEO         NOT AVBL

$$

NCZ045>047-081-094-103-104-262300-
CENTRAL COAST

CITY           SKY/WX    TMP DP  RH WIND       PRES   REMARKS
FRISCO         SUNNY     76  67  73 SW9       30.16F

$$

NCZ095-097-098-100-101-262300-
SOUTHERN COAST

CITY           SKY/WX    TMP DP  RH WIND       PRES   REMARKS
BEAUFORT       SUNNY     77  69  76 S12       30.15F
CEDAR ISLAND   NOT AVBL
JACKSONVILLE   SUNNY     80  62  54 S13       30.12F
PINEY ISLAND   CLEAR    N/A N/A N/A S15       30.14
WILMINGTON     SUNNY     81  63  54 S13       30.13F


$$

NCZ011>013-027>030-043-044-078>080-089-090>093-098-262300-
COASTAL PLAIN

CITY           SKY/WX    TMP DP  RH WIND       PRES   REMARKS
AHOSKIE        SUNNY     85  60  42 S5        30.07F
CLINTON        SUNNY     83  66  54 CALM      30.09F
ELIZABETHTOWN  MOSUNNY   85  65  51 S8        30.09F
GOLDSBORO      SUNNY     88  58  35 VRB7      30.07F
GREENVILLE     MOSUNNY   88  61  40 SW7       30.09F
HAVELOCK       SUNNY     79  63  57 S14       30.14F
KENANSVILLE    SUNNY     85  60  42 CALM      30.10F
KINSTON        MOSUNNY   88  61  40 S8        30.09F
NEW BERN       MOSUNNY   81  64  56 S14       30.13F
RICHLANDS      SUNNY     82  67  60 SE14      30.11F
ROCKY MOUNT    MOSUNNY   87  60  40 S8        30.07F
WASHINGTON     MOSUNNY   83  67  56 S8        30.09S
WHITEVILLE     PTSUNNY   82  65  54 S9        30.10F

$$

AMZ130-135-150-152-154-156-158-170-250-252-270-ANZ085-086-088-633-658-670-262300-
MARINE OBSERVATIONS

STATION/POSITION TIME  TEMP    WIND        PRES    WAVE   SWELL
                       AIR SEA DIR/SP/G            HT/PER HT/PER
                 (UTC) (F)     (DEG/KT/KT) (MB)    (FT/S) (FT/S)
CHESAPEAKE LIGHT 2200   71     170/ 25/ 26 1018.5
64 E VA BEACH    2150   65 59  190/ 10/ 12 1020.0    2/ 8   2/ 8
DUCK             2200      66  170/ 16/ 19 1018.7
2 E DUCK         2111      68                N/A     2/ 8
OREGON INLET     2200      77  190/ 18/ 20 1020.4
13E OREGON INLT  2200      66                N/A     2/ 7   2/ 7
HATTERAS CG      2200      73  190/  5/ 11 1020.6
DIAMOND BUOY     2150   76 73  230/  6/  8 1021.5    2/ 8   2/ 8
CAPE LOOKOUT     2200   76     180/ 11/ 13 1020.6
BEAUFORT LAB     2200      74  190/ 10/ 13 1020.0
30 SE NEW RVR IN 2125      75                N/A     2/ 8
27 SE WRIGHTSVLE 2208   77 75  200/ 10/ 12 1020.8
5 SE WRIGHTSVLE  2108   76 74  200/ 10/ 14 1021.9
225 S CAPE HAT   2150   76 78   70/ 16/ 17 1020.7    3/ 4   2/ 8
41 SE CHARLESTON 2150   78 78  120/  6/  8 1020.3    2/ 8   2/ 8

$$



USA.gov is the U.S. government's official web portal to all federal, state and local government web resources and services.